FW7008 Weather Reports


time (UTC)temp
F
wind
direction
speed
knots
gust
knots
rain 1hr
in
rain 24hr
in
rain mn
in
humidity
%
barometer
mb
20260901173451 75 124 0.0 0.0 0.00 0.00 0.00 76 1016.6
20260901172947 75 74 0.0 0.0 0.00 0.00 0.00 75 1016.6
20260901172443 75 69 0.0 0.0 0.00 0.00 0.00 75 1015.9
20260901171941 74 53 0.0 0.0 0.00 0.00 0.00 76 1016.2
20260901171439 74 110 0.0 0.0 0.00 0.00 0.00 78 1016.2
20260901170938 73 28 0.0 0.0 0.00 0.00 0.00 78 1016.2
20260901170433 73 16 0.0 0.0 0.00 0.00 0.00 79 1015.9
20260901165932 73 150 0.0 0.0 0.00 0.00 0.00 78 1016.2
20260901165427 73 25 0.0 0.0 0.00 0.00 0.00 80 1016.2
20260901164918 73 61 0.0 0.0 0.00 0.00 0.00 81 1016.2
20260901164418 71 35 0.0 0.0 0.00 0.00 0.00 83 1016.2
20260901163913 71 92 0.0 0.0 0.00 0.00 0.00 82 1016.2
20260901163408 71 139 0.0 0.0 0.00 0.00 0.00 83 1016.2
20260901162902 71 77 0.0 0.0 0.00 0.00 0.00 84 1016.2
20260901162402 71 74 0.0 0.0 0.00 0.00 0.00 84 1016.2
20260901161901 71 62 0.0 0.0 0.00 0.00 0.00 85 1016.2
20260901161356 70 40 0.0 0.0 0.00 0.00 0.00 85 1016.2
20260901160856 70 70 0.0 0.0 0.00 0.00 0.00 86 1015.9
20260901160353 69 111 0.0 0.0 0.00 0.00 0.00 87 1016.2
20260901155851 69 123 0.0 0.0 0.00 0.00 0.00 87 1015.9
20260901155346 70 160 0.0 0.0 0.00 0.00 0.00 87 1016.2
20260901154843 69 94 0.0 0.0 0.00 0.00 0.00 88 1015.9
20260901154342 69 298 0.0 0.0 0.00 0.00 0.00 89 1016.2
20260901153837 69 286 0.0 0.0 0.00 0.00 0.00 89 1015.9
20260901153332 69 265 0.0 0.0 0.00 0.00 0.00 89 1015.9
20260901152830 69 233 0.0 0.0 0.00 0.00 0.00 90 1015.9
20260901152329 68 229 0.0 0.0 0.00 0.00 0.00 90 1016.2
20260901151820 68 208 0.0 0.0 0.00 0.00 0.00 90 1015.9
20260901151319 68 156 0.0 0.0 0.00 0.00 0.00 90 1015.9
20260901150814 68 240 0.0 0.0 0.00 0.00 0.00 90 1015.9
20260901150312 69 255 0.0 0.0 0.00 0.00 0.00 89 1015.9
20260901145809 69 191 0.0 0.0 0.00 0.00 0.00 89 1015.9
20260901145306 69 83 0.0 0.0 0.00 0.00 0.00 89 1015.6
20260901144758 68 89 0.0 0.0 0.00 0.00 0.00 90 1015.9
20260901144255 68 153 0.0 0.0 0.00 0.00 0.00 90 1015.6
20260901143750 68 133 0.0 0.0 0.00 0.00 0.00 90 1015.6
20260901143246 68 65 0.0 0.0 0.00 0.00 0.00 92 1015.2
20260901142742 67 74 0.0 0.0 0.00 0.00 0.00 92 1015.2
20260901142240 67 80 0.0 0.0 0.00 0.00 0.00 93 1015.2
20260901141731 66 79 0.0 0.0 0.00 0.00 0.00 94 1015.2
20260901141231 65 79 0.0 0.0 0.00 0.00 0.00 96 1015.2
20260901140729 65 74 0.0 0.0 0.00 0.00 0.00 96 1015.2
20260901140228 64 74 0.0 0.0 0.00 0.00 0.00 97 1015.2
20260901135718 64 84 0.0 0.0 0.00 0.00 0.00 97 1015.2
20260901135217 64 82 0.0 0.0 0.00 0.00 0.00 98 1014.9
20260901134713 63 72 0.0 0.0 0.00 0.00 0.00 98 1014.9
20260901134209 63 73 0.0 0.0 0.00 0.00 0.00 98 1015.2
20260901133708 63 77 0.0 0.0 0.00 0.00 0.00 98 1014.9
20260901133208 63 80 0.0 0.0 0.00 0.00 0.00 98 1014.9
20260901132706 62 84 0.0 0.0 0.00 0.00 0.00 98 1014.9
20260901132206 62 62 0.0 0.0 0.00 0.00 0.00 98 1014.9
20260901131701 62 61 0.0 0.0 0.00 0.00 0.00 98 1014.9
20260901131201 61 61 0.0 0.0 0.00 0.00 0.00 98 1014.9
20260901130655 62 61 0.0 0.0 0.00 0.00 0.00 98 1014.9
20260901130154 62 61 0.0 0.0 0.00 0.00 0.00 98 1014.6
20260901125653 62 61 0.0 0.0 0.00 0.00 0.00 98 1014.9
20260901125148 62 61 0.0 0.0 0.00 0.00 0.00 97 1014.6
20260901124643 62 61 0.0 0.0 0.00 0.00 0.00 97 1014.9
20260901124137 62 61 0.0 0.0 0.00 0.00 0.00 97 1014.9
20260901123631 62 61 0.0 0.0 0.00 0.00 0.00 97 1014.9
20260901123131 62 61 0.0 0.0 0.00 0.00 0.00 97 1014.9
20260901122629 62 61 0.0 0.0 0.00 0.00 0.00 97 1014.6
20260901122124 62 61 0.0 0.0 0.00 0.00 0.00 97 1014.9
20260901121620 62 61 0.0 0.0 0.00 0.00 0.00 97 1014.6
20260901121115 62 61 0.0 0.0 0.00 0.00 0.00 97 1014.6
20260901120614 62 61 0.0 0.0 0.00 0.00 0.00 97 1014.6
20260901120110 63 61 0.0 0.0 0.00 0.00 0.00 97 1014.6
20260901115604 63 61 0.0 0.0 0.00 0.00 0.00 97 1014.6
20260901115056 63 61 0.0 0.0 0.00 0.00 0.00 97 1014.6
20260901114552 62 61 0.0 0.0 0.00 0.00 0.00 97 1014.2
20260901114051 63 61 0.0 0.0 0.00 0.00 0.00 97 1014.6
20260901113549 63 64 0.0 0.0 0.00 0.00 0.00 97 1014.6
20260901113045 63 65 0.0 0.0 0.00 0.00 0.00 97 1014.6
20260901112539 62 68 0.0 0.0 0.00 0.00 0.00 97 1014.6
20260901112034 63 70 0.0 0.0 0.00 0.00 0.00 96 1014.6
20260901111533 63 70 0.0 0.0 0.00 0.00 0.00 96 1014.6
20260901111031 63 69 0.0 0.0 0.00 0.00 0.00 96 1014.6
20260901110527 63 70 0.0 0.0 0.00 0.00 0.00 96 1014.9
20260901110023 63 72 0.0 0.0 0.00 0.00 0.00 96 1014.6
20260901105520 63 73 0.0 0.0 0.00 0.00 0.00 96 1014.9
20260901105018 64 72 0.0 0.0 0.00 0.00 0.00 96 1014.9
20260901104515 63 72 0.0 0.0 0.00 0.00 0.00 96 1014.9
20260901104009 63 73 0.0 0.0 0.00 0.00 0.00 96 1014.9
20260901103504 64 73 0.0 0.0 0.00 0.00 0.00 96 1014.9
20260901103000 64 79 0.0 0.0 0.00 0.00 0.00 95 1014.9
20260901102454 64 82 0.0 0.0 0.00 0.00 0.00 95 1014.9
20260901101949 64 84 0.0 0.0 0.00 0.00 0.00 95 1014.6
20260901101443 64 91 0.0 0.0 0.00 0.00 0.00 95 1014.6
20260901100938 64 92 0.0 0.0 0.00 0.00 0.00 95 1014.9
20260901100432 64 102 0.0 0.0 0.00 0.00 0.00 95 1014.9
20260901095926 65 116 0.0 0.0 0.00 0.00 0.00 95 1014.9
20260901095425 64 133 0.0 0.0 0.00 0.00 0.00 95 1014.9
20260901094923 65 162 0.0 0.0 0.00 0.00 0.00 95 1014.6
20260901094424 65 177 0.0 0.0 0.00 0.00 0.00 95 1014.9
20260901093924 65 198 0.0 0.0 0.00 0.00 0.00 95 1014.9
20260901093424 65 225 0.0 0.0 0.00 0.00 0.00 95 1014.6
20260901092919 65 225 0.0 0.0 0.00 0.00 0.00 95 1014.9
20260901092415 65 231 0.0 0.0 0.00 0.00 0.00 95 1014.6
20260901091910 65 226 0.0 0.0 0.00 0.00 0.00 95 1014.9
20260901091410 65 236 0.0 0.0 0.00 0.00 0.00 95 1014.9
20260901090905 65 242 0.0 0.0 0.00 0.00 0.00 94 1014.9
20260901090400 65 245 0.0 0.0 0.00 0.00 0.00 94 1014.6
20260901085855 65 257 0.0 0.0 0.00 0.00 0.00 94 1014.9
20260901085351 65 245 0.0 0.0 0.00 0.00 0.00 94 1014.6
20260901084848 65 245 0.0 0.0 0.00 0.00 0.00 94 1014.9
20260901084343 65 269 0.0 0.0 0.00 0.00 0.00 95 1014.9
20260901083839 65 236 0.0 0.0 0.00 0.00 0.00 94 1014.9
20260901083338 65 178 0.0 0.0 0.00 0.00 0.00 94 1015.2
20260901082836 66 167 0.0 0.0 0.00 0.00 0.00 94 1014.9
20260901082332 65 129 0.0 0.0 0.00 0.00 0.00 94 1014.9
20260901081827 65 135 0.0 0.0 0.00 0.00 0.00 94 1014.9
20260901081322 65 145 0.0 0.0 0.00 0.00 0.00 94 1015.2
20260901080816 66 160 0.0 0.0 0.00 0.00 0.00 94 1014.9
20260901080311 66 190 0.0 0.0 0.00 0.00 0.00 94 1014.9
20260901075810 66 214 0.0 0.0 0.00 0.00 0.00 94 1014.9
20260901075307 66 236 0.0 0.0 0.00 0.00 0.00 94 1014.9
20260901074800 66 245 0.0 0.0 0.00 0.00 0.00 94 1014.9
20260901074255 66 265 0.0 0.0 0.00 0.00 0.00 94 1014.9
20260901073751 66 243 0.0 0.0 0.00 0.00 0.00 94 1014.9
20260901073246 67 242 0.0 0.0 0.00 0.00 0.00 94 1014.9
20260901072741 67 245 0.0 0.0 0.00 0.00 0.00 94 1014.9
20260901072237 67 232 0.0 0.0 0.00 0.00 0.00 94 1014.9
20260901071736 67 244 0.0 0.0 0.00 0.00 0.00 94 1014.9
20260901071237 67 242 0.0 0.0 0.00 0.00 0.00 94 1014.9
20260901070735 67 245 0.0 0.0 0.00 0.00 0.00 94 1014.9
20260901070231 67 216 0.0 0.0 0.00 0.00 0.00 94 1014.9
20260901065730 67 156 0.0 0.0 0.00 0.00 0.00 94 1014.9
20260901065226 67 232 0.0 0.0 0.00 0.00 0.00 94 1014.9
20260901064722 67 162 0.0 0.0 0.00 0.00 0.00 94 1014.9
20260901064218 67 174 0.0 0.0 0.00 0.00 0.00 94 1014.6
20260901063715 67 211 0.0 0.0 0.00 0.00 0.00 93 1014.9
20260901063210 67 221 0.0 0.0 0.00 0.00 0.00 93 1014.6
20260901062706 67 243 0.0 0.0 0.00 0.00 0.00 93 1014.9
20260901062202 67 273 0.0 0.0 0.00 0.00 0.00 93 1014.6
20260901061658 67 226 0.0 0.0 0.00 0.00 0.00 93 1014.6
20260901061157 67 213 0.0 0.0 0.00 0.00 0.00 93 1014.2
20260901060652 68 185 0.0 0.0 0.00 0.00 0.00 93 1014.6
20260901060148 68 168 0.0 0.0 0.00 0.00 0.00 93 1014.6
20260901055649 68 253 0.0 0.0 0.00 0.00 0.00 93 1014.2
20260901055145 68 231 0.0 0.0 0.00 0.00 0.00 93 1014.2
20260901054642 68 166 0.0 0.0 0.00 0.00 0.00 93 1014.6
20260901054138 68 267 0.0 0.0 0.00 0.00 0.00 93 1014.2
20260901053634 68 253 0.0 0.0 0.00 0.00 0.00 93 1014.6
20260901053129 68 243 0.0 0.0 0.00 0.00 0.00 93 1014.6
20260901052624 68 229 0.0 0.0 0.00 0.00 0.00 93 1014.2
20260901052119 68 204 0.0 0.0 0.00 0.00 0.00 93 1014.2
20260901051613 68 223 0.0 0.0 0.00 0.00 0.00 93 1014.2
20260901051111 68 285 0.0 0.0 0.00 0.00 0.00 93 1014.2
20260901050607 68 217 0.0 0.0 0.00 0.00 0.00 93 1014.2
20260901045557 68 159 0.0 0.0 0.00 0.00 0.00 93 1014.2
20260901045052 68 214 0.0 0.0 0.00 0.00 0.00 93 1014.2
20260901044548 68 215 0.0 0.0 0.00 0.00 0.00 93 1014.2
20260901044044 68 202 0.0 0.0 0.00 0.00 0.00 93 1013.9
20260901043539 68 225 0.0 0.0 0.00 0.00 0.00 93 1014.2
20260901043035 68 171 0.0 0.0 0.00 0.00 0.00 93 1013.9
20260901042534 69 230 0.0 0.0 0.00 0.00 0.00 93 1014.6
20260901042029 69 240 0.0 0.0 0.00 0.00 0.00 92 1014.2
20260901041525 69 218 0.0 0.0 0.00 0.00 0.00 92 1014.2
20260901041020 69 170 0.0 0.0 0.00 0.00 0.00 92 1013.9
20260901040519 68 209 0.0 0.0 0.00 0.00 0.00 91 1013.9
20260901040014 68 223 0.0 0.0 0.00 0.00 0.00 91 1013.9
20260901035512 68 184 0.0 0.0 0.00 0.00 0.00 91 1013.5
20260901035010 68 176 0.0 0.0 0.00 0.00 0.00 91 1013.5
20260901034510 68 236 0.0 0.0 0.00 0.00 0.00 92 1013.5
20260901034005 68 262 0.0 0.0 0.00 0.00 0.00 92 1013.2
20260901033458 69 245 0.0 0.0 0.00 0.00 0.00 92 1013.5
20260901032957 69 176 0.0 0.0 0.00 0.00 0.00 92 1013.2
20260901032452 69 171 0.0 0.0 0.00 0.00 0.00 92 1013.2
20260901031946 69 239 0.0 0.0 0.00 0.00 0.00 91 1013.2
20260901031442 69 238 0.0 0.0 0.00 0.00 0.00 91 1013.2
20260901030942 69 185 0.0 0.0 0.00 0.00 0.00 91 1013.2
20260901030438 69 235 0.0 0.0 0.00 0.00 0.00 91 1012.9
20260901025936 69 255 0.0 0.0 0.00 0.00 0.00 91 1012.9
20260901025432 69 240 0.0 0.0 0.00 0.00 0.00 91 1013.2
20260901024931 69 250 0.0 0.0 0.00 0.00 0.00 91 1012.9
20260901024425 69 242 0.0 0.0 0.00 0.00 0.00 91 1012.9
20260901023924 69 194 3.5 5.2 0.00 0.00 0.00 91 1012.5
20260901023419 69 221 3.5 5.2 0.00 0.00 0.00 90 1012.9
20260901022914 69 267 6.1 7.8 0.00 0.00 0.00 90 1012.9
20260901022410 69 236 4.3 5.2 0.00 0.00 0.00 90 1012.9
20260901021905 69 241 7.0 7.8 0.00 0.00 0.00 90 1012.9
20260901021401 69 231 1.7 2.6 0.00 0.00 0.00 90 1012.9
20260901020856 69 254 1.7 2.6 0.00 0.00 0.00 90 1012.9
20260901020351 70 283 0.9 2.6 0.00 0.00 0.00 89 1012.9
20260901015850 70 250 6.1 7.8 0.00 0.00 0.00 88 1012.9
20260901015347 70 242 7.8 9.6 0.00 0.00 0.00 88 1012.9
20260901014846 70 245 2.6 5.2 0.00 0.00 0.00 88 1012.9
20260901014342 70 229 6.1 7.8 0.00 0.00 0.00 88 1012.9
20260901013837 71 235 5.2 7.8 0.00 0.00 0.00 87 1012.9
20260901013333 71 192 6.1 8.7 0.00 0.00 0.00 86 1012.9
20260901012828 71 155 4.3 6.1 0.00 0.00 0.00 86 1012.9
20260901012323 71 214 0.0 0.0 0.00 0.00 0.00 86 1012.9
20260901011819 71 229 4.3 7.0 0.00 0.00 0.00 86 1012.9
20260901011314 71 243 6.1 9.6 0.00 0.00 0.00 86 1012.9
20260901010807 72 264 7.0 8.7 0.00 0.00 0.00 86 1012.9
20260901010303 73 240 7.0 11.3 0.00 0.00 0.00 84 1012.9
20260901005801 73 224 6.1 8.7 0.00 0.00 0.00 84 1013.2
20260901005256 73 193 6.1 7.8 0.00 0.00 0.00 84 1013.2
20260901004750 73 238 7.0 8.7 0.00 0.00 0.00 84 1012.9
20260901004245 73 238 3.5 5.2 0.00 0.00 0.00 84 1013.2
20260901003745 73 160 7.0 9.6 0.00 0.00 0.00 83 1013.2
20260901003240 74 228 0.0 1.7 0.00 0.00 0.00 83 1012.9
20260901002738 73 210 5.2 7.0 0.00 0.00 0.00 83 1013.2
20260901002234 74 252 7.8 8.7 0.00 0.00 0.00 83 1012.9
20260901001729 74 282 9.6 12.2 0.00 0.00 0.00 83 1012.9
20260901001224 75 175 5.2 7.0 0.00 0.00 0.00 82 1012.9
20260901000720 74 272 9.6 12.2 0.00 0.00 0.00 83 1013.2
20260901000215 75 254 6.1 7.8 0.00 0.00 0.00 81 1012.9
20260831235714 75 184 9.6 11.3 0.00 0.00 0.00 82 1013.2
20260831235210 75 205 7.0 8.7 0.00 0.00 0.00 81 1012.9
20260831234709 75 192 8.7 11.3 0.00 0.00 0.00 81 1013.2
20260831234204 76 202 10.4 13.9 0.00 0.00 0.00 82 1013.2
20260831233659 76 205 2.6 4.3 0.00 0.00 0.00 82 1012.9
20260831233154 75 229 4.3 7.0 0.00 0.00 0.00 83 1013.2
20260831232649 76 226 6.1 7.8 0.00 0.00 0.00 82 1013.2
20260831232145 77 232 7.0 9.6 0.00 0.00 0.00 80 1012.9
20260831231641 76 226 4.3 6.1 0.00 0.00 0.00 82 1012.9
20260831231137 77 241 12.2 13.9 0.00 0.00 0.00 81 1013.2
20260831230632 77 241 5.2 6.1 0.00 0.00 0.00 81 1012.9
20260831230127 76 214 7.0 11.3 0.00 0.00 0.00 81 1012.9
20260831225621 78 215 7.0 7.8 0.00 0.00 0.00 79 1012.9
20260831225116 78 217 7.8 9.6 0.00 0.00 0.00 77 1012.9
20260831224611 77 284 9.6 12.2 0.00 0.00 0.00 79 1012.9
20260831224101 77 217 8.7 9.6 0.00 0.00 0.00 79 1013.2
20260831223557 77 235 7.0 11.3 0.00 0.00 0.00 79 1012.9
20260831223052 78 215 8.7 9.6 0.00 0.00 0.00 78 1012.9
20260831222548 78 216 7.8 9.6 0.00 0.00 0.00 76 1013.2
20260831222048 77 298 7.0 7.8 0.00 0.00 0.00 78 1013.5
20260831221545 77 239 8.7 12.2 0.00 0.00 0.00 76 1013.5
20260831221044 78 243 7.8 9.6 0.00 0.00 0.00 77 1013.2
20260831220544 78 162 6.1 7.0 0.00 0.00 0.00 77 1013.5
20260831220040 77 241 6.1 7.8 0.00 0.00 0.00 79 1013.5
20260831215536 77 236 7.8 8.7 0.00 0.00 0.00 77 1013.5
20260831215031 77 239 7.8 8.7 0.00 0.00 0.00 79 1013.5
20260831214529 77 230 5.2 7.8 0.00 0.00 0.00 77 1013.5
20260831214024 77 210 10.4 12.2 0.00 0.00 0.00 77 1013.5
20260831213521 78 263 5.2 8.7 0.00 0.00 0.00 77 1013.5
20260831213016 78 309 7.0 9.6 0.00 0.00 0.00 76 1013.5
20260831212512 77 236 8.7 11.3 0.00 0.00 0.00 77 1013.5
20260831212007 78 242 7.0 7.8 0.00 0.00 0.00 75 1013.9
20260831211502 78 235 7.8 12.2 0.00 0.00 0.00 76 1013.9
20260831211000 77 260 7.8 8.7 0.00 0.00 0.00 77 1013.9
20260831210456 78 274 7.8 8.7 0.00 0.00 0.00 75 1013.9
20260831205952 78 240 6.1 8.7 0.00 0.00 0.00 76 1013.9
20260831205447 78 243 7.8 9.6 0.00 0.00 0.00 75 1013.9
20260831204943 78 224 3.5 6.1 0.00 0.00 0.00 76 1013.5
20260831204442 80 224 6.1 7.8 0.00 0.00 0.00 74 1013.9
20260831203936 78 256 7.0 9.6 0.00 0.00 0.00 76 1013.9
20260831203435 78 272 7.8 8.7 0.00 0.00 0.00 77 1013.9
20260831202933 78 265 8.7 9.6 0.00 0.00 0.00 77 1013.9
20260831202429 78 180 4.3 9.6 0.00 0.00 0.00 78 1013.9
20260831201923 78 200 6.1 7.8 0.00 0.00 0.00 76 1014.2
20260831201422 78 245 6.1 9.6 0.00 0.00 0.00 77 1013.9
20260831200919 78 254 7.0 8.7 0.00 0.00 0.00 76 1014.2
20260831200414 79 203 6.1 7.0 0.00 0.00 0.00 75 1014.2
20260831195913 79 243 5.2 7.0 0.00 0.00 0.00 75 1014.2
20260831195409 77 229 4.3 7.0 0.00 0.00 0.00 77 1014.2
20260831194904 79 172 0.0 0.0 0.00 0.00 0.00 75 1014.2
20260831194359 78 219 4.3 5.2 0.00 0.00 0.00 76 1014.2
20260831193859 78 245 2.6 4.3 0.00 0.00 0.00 76 1014.6
20260831193354 79 257 5.2 7.0 0.00 0.00 0.00 75 1014.2
20260831192849 79 245 5.2 7.0 0.00 0.00 0.00 76 1014.6
20260831192344 79 262 6.1 7.0 0.00 0.00 0.00 74 1014.6
20260831191840 78 237 6.1 7.0 0.00 0.00 0.00 76 1014.2
20260831191336 79 241 4.3 7.0 0.00 0.00 0.00 75 1014.6
20260831190832 79 254 3.5 4.3 0.00 0.00 0.00 75 1014.6
20260831190331 79 265 6.1 7.8 0.00 0.00 0.00 74 1014.6
20260831185831 78 237 3.5 6.1 0.00 0.00 0.00 77 1014.2
20260831185326 79 232 3.5 5.2 0.00 0.00 0.00 75 1014.6
20260831184825 78 260 5.2 6.1 0.00 0.00 0.00 77 1014.2
20260831184321 78 247 5.2 7.0 0.00 0.00 0.00 78 1014.2
20260831183816 78 226 3.5 4.3 0.00 0.00 0.00 77 1014.2
20260831183315 79 246 3.5 5.2 0.00 0.00 0.00 75 1014.2
20260831182815 79 239 5.2 7.8 0.00 0.00 0.00 75 1014.6
20260831182310 80 278 7.0 8.7 0.00 0.00 0.00 74 1014.2
20260831181805 80 140 3.5 4.3 0.00 0.00 0.00 75 1014.6
20260831181300 79 130 1.7 1.7 0.00 0.00 0.00 76 1014.6
20260831180755 79 233 4.3 6.1 0.00 0.00 0.00 75 1014.6
20260831180250 79 359 0.0 0.0 0.00 0.00 0.00 75 1014.6
20260831175748 79 356 0.0 0.0 0.00 0.00 0.00 75 1014.2
20260831175240 79 138 1.7 1.7 0.00 0.00 0.00 75 1014.2
20260831174735 79 75 0.0 0.0 0.00 0.00 0.00 75 1014.2
20260831174231 79 128 0.0 0.0 0.00 0.00 0.00 76 1014.2
20260831173729 78 100 0.0 0.9 0.00 0.00 0.00 76 1014.6